CZ-2F DEB, 53364

Orbit data source: Space-Track

CZ-2F DEB, 53364 is space debris in LEO originally from a launch on Thu, 04 Aug 2022 UTC launched from the Jiuquan Satellite Launch Center, China (JSC). Debris objects in space refer to the collection of defunct objects orbiting the Earth. Examples of debris include non-operational satellites, rocket bodies, and fragments generated from explosions, collisions, or faulty payload assembly.

Loading next visibility...
Identifier
53364, 2022-093H
Orbit
LEO
Country
Flag of CNCN / PRC
Related business
Manufacturer
CALT?
Mission
Spacecraft
Bus & Motor
Unknown
Mass
1 kg wet, 1 kg dry
Launch date (UTC)
2022-08-04 (4 years ago)
Launch vehicle
Unknown
Launch site
Jiuquan Satellite Launch Center, China (JSC)
Object type
Payload
Rocket body
Debris
Shape & HBR
Cone, 0.1 m
Radar Cross Section
0.025 m², Medium (>0.1 m² and < 1m²)

Expand to show TLE details & history
Last TLE update: 2 days ago

TLE from 2 days ago
0 CZ-2F DEB
1 53364U 22093H   26171.40039292  .00005783  00000-0  23911-3 0  9995
2 53364  50.0163 171.2610 0071145  92.3792 268.5311 15.23141018213925
Epoch: 2026-06-20T09:36Z
TLE epoch observation values (Epoch: 2026-06-20T09:36:33.948Z)
Latitude
-0.00001°
Longitude
118.50399°
Altitude
498.53 km
Speed
7.616 km/s
True Right ascension
11h 25m 02s
True Declination
0° 00' 00"
Sunlit
Object was in daylight at epoch
Visualization orbit readout
Latitude
Unknown
Longitude
Unknown
Altitude
Unknown
Speed
Unknown
Apparent Right ascension
Unknown
Apparent Declination
Unknown
Sunlit
N/A
Visualization observer readout
Local Sidereal Time
21:24:33
Azimuth
Unknown
Elevation
Unknown
Doppler factor
Unknown
Orbital elements
Apogee altitude
546.056 km
Perigee altitude
448.228 km
Semi-major axis
6,875.279 km
Eccentricity
0.00711
Inclination
50.0163°
RAAN
171.261°
Arg. of periapsis
92.3792°
True anomaly
267.71632°
Mean anomaly
268.5311°
Eccentric anomaly
268.12369°
Mean motion
3.80722 °/min
Orbital period
94.56 mins
BSTAR
0.00023911
Loading maneuver chart data...
Computing Atmospheric mass density...
Loading historical data...
Loading historical data...
Loading historical data...
Loading historical data...
Loading historical data...
Loading historical data...
Loading historical data...

Documentation

Showing up to 5 results
|